QPF
0.00 0.00 0.00 0.00 0.00 0.00 0.00 0.00 0.00 0.00 0.00 0.00 0.00 0.00 0.00 0.00 0.00 0.00 0.00 0.00 0.00 0.00
0.00 0.00 0.00 0.00 0.00 0.00 0.00 0.00 0.00 0.00 0.00 0.00 0.00 0.00 0.00 0.00 0.00 0.00 0.00 0.00 0.00 0.00
0.00 0.00 0.01 0.01 0.00 0.00 0.00 0.00 0.00 0.00 0.00 0.00 0.00 0.00 0.00 0.00 0.00 0.00 0.00 0.00 0.00 0.00
0.01 0.03 0.07 0.05 0.02 0.00 0.00 0.00 0.00 0.00 0.00 0.00 0.00 0.00 0.00 0.00 0.00 0.00 0.00 0.00 0.00 0.00
0.10 0.10 0.11 0.10 0.04 0.00 0.00 0.00 0.00 0.01 0.00 0.00 0.00 0.00 0.00 0.00 0.00 0.00 0.00 0.00 0.00 0.00
0.09 0.11 0.16 0.12 0.05 0.00 0.00 0.00 0.00 0.01 0.03 0.01 0.00 0.00 0.00 0.00 0.00 0.00 0.00 0.00 0.00 0.00
0.06 0.10 0.16 0.13 0.04 0.01 0.00 0.00 0.00 0.00 0.00 0.00 0.00 0.00 0.00 0.00 0.01 0.01 0.01 0.00 0.00 0.00
0.03 0.10 0.14 0.11 0.10 0.08 0.04 0.02 0.02 0.01 0.00 0.01 0.00 0.00 0.02 0.04 0.04 0.02 0.02 0.01 0.00 0.00
0.03 0.05 0.09 0.10 0.10 0.11 0.14 0.17 0.15 0.09 0.02 0.00 0.00 0.00 0.01 0.02 0.03 0.02 0.02 0.01 0.01 0.01
0.03 0.03 0.04 0.04 0.05 0.06 0.07 0.06 0.06 0.03 0.01 0.01 0.00 0.04 0.05 0.03 0.00 0.00 0.00 0.00 0.01 0.01
0.04 0.04 0.02 0.02 0.02 0.03 0.03 0.03 0.02 0.02 0.02 0.00 0.02 0.11 0.10 0.07 0.02 0.00 0.00 0.00 0.00 0.00
0.00 0.00 0.00 0.00 0.00 0.00 0.00 0.00 0.01 0.01 0.01 0.01 0.00 0.06 0.10 0.09 0.06 0.01 0.00 0.00 0.00 0.00
0.00 0.01 0.01 0.00 0.00 0.00 0.00 0.00 0.00 0.01 0.02 0.01 0.00 0.01 0.03 0.04 0.03 0.02 0.01 0.01 0.00 0.00
0.00 0.00 0.00 0.00 0.00 0.00 0.00 0.00 0.00 0.00 0.00 0.00 0.00 0.00 0.02 0.04 0.03 0.02 0.01 0.01 0.01 0.00
MSLP
1017.77 1018.01 1018.22 1018.47 1018.62 1018.67 1018.68 1018.53 1018.56 1018.77 1019.03 1019.24 1019.47 1019.63 1019.78 1019.94 1020.11 1020.28 1020.35 1020.40 1020.55 1020.70
1017.47 1017.91 1018.29 1018.52 1018.53 1018.53 1018.47 1018.36 1018.38 1018.45 1018.69 1018.83 1019.02 1019.18 1019.34 1019.53 1019.75 1019.84 1019.94 1020.06 1020.14 1020.42
1017.31 1017.74 1018.12 1018.51 1018.51 1018.37 1018.17 1018.11 1018.04 1018.17 1018.31 1018.48 1018.55 1018.72 1019.04 1019.25 1019.35 1019.53 1019.58 1019.64 1019.86 1020.03
1016.46 1016.22 1016.15 1016.70 1017.44 1018.36 1018.12 1017.65 1017.55 1017.51 1017.64 1017.92 1018.04 1018.13 1018.42 1018.69 1018.97 1019.19 1019.21 1019.29 1019.48 1019.53
1015.97 1016.16 1016.57 1016.76 1016.70 1016.74 1017.45 1017.44 1017.26 1017.21 1017.23 1017.26 1017.38 1017.51 1017.72 1017.98 1018.20 1018.55 1018.73 1018.79 1018.93 1019.00
1015.51 1015.84 1015.93 1016.01 1016.12 1015.97 1016.35 1016.58 1016.74 1016.86 1016.81 1016.80 1016.74 1016.81 1016.93 1017.21 1017.49 1017.56 1017.79 1018.01 1018.21 1018.32
1015.44 1015.60 1015.55 1015.44 1015.44 1015.64 1015.87 1016.19 1016.29 1016.33 1016.35 1016.35 1016.32 1016.29 1016.30 1016.50 1016.69 1016.88 1017.04 1017.27 1017.45 1017.60
1015.28 1015.48 1015.38 1015.63 1015.79 1015.92 1015.83 1015.82 1015.79 1015.82 1015.82 1015.87 1015.95 1015.92 1015.92 1016.02 1016.21 1016.41 1016.47 1016.57 1016.72 1016.77
1015.21 1015.18 1015.40 1015.42 1015.54 1015.57 1015.70 1015.74 1015.71 1015.71 1015.67 1015.50 1015.40 1015.35 1015.38 1015.45 1015.53 1015.63 1015.85 1015.87 1015.84 1015.88
1015.13 1015.39 1015.40 1015.39 1015.43 1015.50 1015.54 1015.53 1015.48 1015.45 1015.35 1015.17 1014.94 1014.75 1014.82 1014.72 1014.83 1014.87 1014.96 1015.01 1015.08 1015.09
1015.47 1015.49 1015.52 1015.44 1015.50 1015.40 1015.42 1015.40 1015.20 1015.14 1015.02 1014.91 1014.47 1014.30 1014.33 1014.31 1014.40 1014.14 1014.23 1014.19 1014.20 1014.34
1016.03 1015.94 1015.97 1015.83 1016.00 1015.44 1015.06 1015.16 1015.13 1014.93 1014.75 1014.63 1014.04 1013.75 1013.57 1013.80 1013.90 1013.80 1013.64 1013.33 1013.50 1013.78
1016.17 1016.07 1016.04 1015.71 1015.39 1015.30 1014.90 1014.78 1014.63 1014.64 1014.24 1013.72 1013.74 1013.09 1012.95 1013.13 1013.21 1013.19 1013.12 1013.20 1012.93 1013.30
1016.23 1016.18 1015.98 1015.83 1015.56 1015.28 1014.94 1014.75 1014.38 1014.01 1013.82 1013.45 1013.01 1012.62 1012.52 1012.71 1012.73 1012.44 1012.59 1012.52 1012.74 1012.73
Thickness
5689 5685 5681 5676 5672 5670 5667 5666 5662 5658 5654 5650 5645 5642 5638 5635 5631 5628 5624 5622 5618 5614
5685 5678 5672 5668 5666 5663 5660 5659 5655 5653 5648 5645 5641 5637 5634 5630 5626 5623 5620 5617 5613 5607
5680 5674 5667 5659 5656 5656 5656 5652 5650 5646 5643 5639 5636 5632 5627 5624 5620 5617 5614 5611 5606 5601
5681 5680 5673 5665 5654 5644 5646 5648 5646 5644 5640 5634 5631 5628 5623 5618 5613 5609 5606 5603 5598 5595
5677 5671 5662 5656 5653 5651 5641 5638 5638 5636 5634 5631 5627 5624 5619 5614 5610 5604 5598 5595 5592 5588
5671 5664 5659 5654 5648 5647 5641 5636 5631 5628 5626 5624 5623 5619 5615 5610 5605 5602 5597 5591 5587 5583
5659 5653 5651 5647 5643 5638 5633 5627 5623 5620 5618 5616 5614 5612 5610 5605 5601 5595 5592 5586 5581 5577
5647 5641 5638 5632 5627 5622 5620 5619 5615 5612 5610 5607 5604 5603 5600 5597 5593 5588 5584 5580 5575 5572
5639 5635 5629 5624 5619 5615 5610 5607 5604 5601 5598 5597 5595 5594 5592 5589 5584 5581 5577 5574 5571 5568
5628 5621 5615 5611 5607 5603 5600 5596 5593 5589 5587 5587 5586 5585 5583 5582 5578 5575 5571 5568 5565 5564
5611 5606 5602 5598 5594 5591 5587 5584 5582 5579 5576 5574 5576 5574 5572 5571 5569 5569 5566 5564 5561 5559
5592 5587 5582 5579 5574 5576 5577 5571 5568 5565 5564 5561 5565 5564 5564 5562 5561 5559 5558 5559 5555 5552
5579 5575 5570 5567 5566 5563 5562 5559 5557 5553 5553 5554 5553 5557 5556 5552 5551 5551 5550 5547 5547 5542
5566 5562 5559 5554 5551 5548 5546 5543 5543 5543 5541 5540 5542 5544 5542 5539 5538 5539 5538 5539 5536 5535